Hourly Data Report for September 23, 2018

SHEARWATER RCS
NOVA SCOTIA
Current Station Operator: ECCC - MSC

44°37'47.000" N
63°30'48.000" W
24.00 m
8205092
71264
AAW

Download Data

Hourly Data (September 2018)
Hourly Data Report for September 23, 2018
TIME Temp Definition
°C
Dew Point Definition
°C
Rel Hum Definition
%
Wind Dir Definition
10's deg

Wind Spd Definition
km/h
Visibility Definition
km
Stn Press Definition
kPa
Hmdx Definition


Wind Chill Definition


Weather Definition


00:00 11.0 4.9 66 35 10   101.82     LegendNANA
01:00 10.9 3.8 61 34 12   101.81     LegendNANA
02:00 10.9 2.5 56 35 14   101.84     LegendNANA
03:00 10.2 1.7 56 1 5   101.87     LegendNANA
04:00 7.2 2.6 73 34 3   101.93     LegendNANA
05:00 8.0 2.6 68 2 8   102.00     LegendNANA
06:00 6.2 2.3 76 32 2   102.04     LegendNANA
07:00 7.5 3.7 77 33 6   102.08     LegendNANA
08:00 10.5 4.3 65 28 1   102.09     LegendNANA
09:00 14.0 2.7 46 11 5   102.08     LegendNANA
10:00 15.2 3.9 47 17 10   102.10     LegendNANA
11:00 15.8 3.3 43 15 10   102.09     LegendNANA
12:00 16.4 5.6 49 16 12   102.04     LegendNANA
13:00 17.8 5.1 43 19 14   101.97     LegendNANA
14:00 17.8 5.0 43 22 15   101.93     LegendNANA
15:00 17.8 4.6 42 24 13   101.90     LegendNANA
16:00 17.7 6.6 48 22 16   101.87     LegendNANA
17:00 16.6 6.2 50 22 15   101.90     LegendNANA
18:00 15.1 7.5 60 21 7   101.89     LegendNANA
19:00 12.9 8.0 72 26 2   101.94     LegendNANA
20:00 13.5 7.0 65 35 12   102.02     LegendNANA
21:00 12.5 5.0 60 33 11   102.07     LegendNANA
22:00 11.6 4.3 61 31 12   102.13     LegendNANA
23:00 10.7 4.3 65 33 7   102.18     LegendNANA

Notes on Data Quality.

Legend

  • E = Estimated
  • M = Missing
  • NA = Not Available*
  • [empty] = Indicates an unobserved value
Date modified: